Flag for New Zealand Weather past 2 weeks in Christchurch, New Zealand

Now
27 °F

Passing clouds.


Feels Like: 27 °F
Forecast: 31 / 56 °F
Wind: 2 mph from Northwest

Location: Christchurch Airport

Current Time: May 30, 2015 at 1:08:23 AM

Latest Report: May 30, 2015 at 12:30 AM


Visibility: 5 mi

Pressure: 30.12 "Hg

Humidity: 100%

Dew point: 27 °F

Location of ChristchurchLocation

Historic Weather in Christchurch — Graph

°F

Christchurch temperature yesterday

Maximum temperature yesterday: 52 °F (at 2:00 PM)
Minimum temperature yesterday: 21 °F (at 7:30 AM)
Average temperature yesterday: 34 °F

Past Weeks' High & Low Weather Summary

 TemperatureHumidityPressure
High72 °F (May 21, 1:00 PM)100% (May 15, 12:30 PM)30.36 "Hg (May 15, 12:30 PM)
Low21 °F (May 29, 7:30 AM)31% (May 23, 2:00 PM)29.30 "Hg (May 24, 2:00 PM)
Average45 °F74%29.87 "Hg
* Reported Midnight between May 14 and May 15 — Midnight between May 29 and May 30, Christchurch, Weather by CustomWeather, © 2015

Note: Actual official high and low records may vary slightly from our data, if they occured in-between our weather recording intervals... More about our weather records

Advertising

Christchurch weather history for previous 24 hours

 ConditionsComfort  
Time TempWeatherWind HumidityBarometerVisibility
12:00 AM
Sat, May 30
27 °FPassing clouds.2 mph93%30.12 "HgN/A
11:30 PM
Fri, May 29
27 °FIce fog.2 mph100%30.15 "Hg3 mi
11:00 PM28 °FIce fog.3 mph100%30.15 "Hg2 mi
10:30 PM27 °FIce fog.3 mph100%30.15 "Hg2 mi
10:00 PM28 °FIce fog.1 mph93%30.15 "Hg3 mi
9:30 PM32 °FIce fog.3 mph100%30.15 "Hg0 mi
9:00 PM34 °FFog.3 mph100%30.18 "Hg1 mi
8:30 PM39 °FFog.3 mph100%30.18 "Hg0 mi
8:00 PM32 °FDense fog.1 mph93%30.18 "Hg0 mi
7:30 PM41 °FQuite cool.2 mph100%30.18 "Hg5 mi
7:00 PM41 °FQuite cool.3 mph100%30.18 "Hg5 mi
6:30 PM41 °FQuite cool.5 mph93%30.18 "Hg6 mi
6:00 PM41 °FQuite cool.5 mph93%30.18 "HgN/A
5:30 PM43 °FQuite cool.6 mph87%30.21 "HgN/A
5:00 PM46 °FCool.7 mph82%30.21 "HgN/A
4:30 PM48 °FCool.9 mph76%30.21 "HgN/A
4:00 PM50 °FCool.8 mph58%30.21 "HgN/A
3:30 PM52 °FCool.9 mph44%30.21 "HgN/A
3:00 PM52 °FCool.9 mph44%30.21 "HgN/A
2:30 PM52 °FCool.9 mph38%30.21 "HgN/A
2:00 PM52 °FCool.6 mph44%30.24 "HgN/A
1:30 PM50 °FCool.7 mph47%30.24 "HgN/A
1:00 PM48 °FCool.7 mph54%30.27 "HgN/A
12:30 PM46 °FCool.6 mph57%30.27 "HgN/A
12:00 PM46 °FCool.3 mph50%30.30 "HgN/A
11:30 AM45 °FQuite cool.5 mph57%30.30 "HgN/A
10:00 AM34 °FChilly.1 mph93%30.33 "HgN/A
9:30 AM30 °FChilly.1 mph93%30.33 "HgN/A
9:00 AM27 °FChilly.2 mph93%30.33 "HgN/A
8:30 AM25 °FCold.1 mph93%30.33 "HgN/A
8:00 AM21 °FCold.1 mph93%30.33 "HgN/A
7:30 AM21 °FCold.1 mph93%30.33 "HgN/A
7:00 AM23 °FCold.2 mph93%30.33 "HgN/A
6:30 AM25 °FCold.1 mph93%30.33 "HgN/A
6:00 AM25 °FCold.2 mph100%30.33 "HgN/A
5:30 AM25 °FCold.1 mph93%30.33 "Hg6 mi
5:00 AM23 °FHaze.1 mph100%30.33 "Hg3 mi
4:30 AM23 °FCold.1 mph100%30.33 "Hg6 mi
4:00 AM25 °FCold.1 mph100%30.33 "Hg4 mi
3:30 AM25 °FIce fog.1 mph93%30.33 "Hg1 mi
3:00 AM25 °FCold.No wind100%30.33 "Hg4 mi
2:30 AM27 °FIce fog.2 mph100%30.33 "Hg3 mi
2:00 AM27 °FChilly.1 mph100%30.33 "Hg4 mi
1:30 AM27 °FChilly.2 mph100%30.33 "Hg5 mi
1:00 AM25 °FHaze.1 mph100%30.36 "Hg1 mi
Weather by CustomWeather, © 2015

See weather overviewHow to use our weather pages